National Weather Service Raw Text Product

Displaying AFOS PIL: RWRIA Received: 2018-12-06 09:00 UTC


973 
ASUS43 KDMX 060906
RWRIA 

WEATHER ROUNDUP FOR IOWA
NATIONAL WEATHER SERVICE DES MOINES IA
300 AM CST THU DEC 06 2018

NOTE: "FAIR" INDICATES FEW OR NO CLOUDS BELOW 12,000 FEET WITH NO
SIGNIFICANT WEATHER AND/OR OBSTRUCTIONS TO VISIBILITY.

* - THESE STATIONS ARE NOT NWS STATIONS...THUS NOT UNDER NWS
QUALITY CONTROL.  THEY ALSO DO NOT REPORT WEATHER SUCH 
AS PRECIPITATION OR FOG.  

IAZ001>003-012>014-020>022-031>034-043>046-061000-
   NORTHWEST IOWA
  
CITY           SKY/WX    TMP DP  RH WIND       PRES   REMARKS
CARROLL *      CLOUDY    23  19  86 N17       30.21S WCI   9          
CHEROKEE *     CLOUDY    20  15  83 N7        30.26R WCI  11          
DENISON *      CLOUDY    23  18  80 N14       30.25R WCI  11          
LE MARS *      CLOUDY    21  16  79 N7        30.27R WCI  13          
ORANGE CITY *  CLOUDY    21  18  86 N5        30.25R WCI  15          
SHELDON *      CLOUDY    19  16  86 N12       30.23R WCI   7          
SIOUX CITY     CLOUDY    24  18  77 NE7       30.28R WCI  16          
SPENCER        CLOUDY    20  12  71 N15       30.24R WCI   6          
STORM LAKE *   CLOUDY    18  14  86 N10       30.24R WCI   6          
$$
 
IAZ055>058-069>071-079>083-090>094-061000-
   SOUTHWEST IOWA
  
CITY           SKY/WX    TMP DP  RH WIND       PRES   REMARKS
ATLANTIC *     CLOUDY    23  21  93 N12       30.22R WCI  12          
AUDUBON *      CLOUDY    21  18  86 CALM      30.21R                  
CLARINDA *     CLOUDY    27  21  80 N10       30.24R WCI  17          
COUNCIL BLFS * CLOUDY    25  23  93 N12       30.22R WCI  14          
CRESTON *      CLOUDY    25  21  86 N15       30.19R WCI  12          
HARLAN  *        N/A    N/A N/A N/A MISG        N/A                   
LAMONI         CLOUDY    29  22  75 N10       30.17R WCI  20          
RED OAK *      CLOUDY    25  21  86 N15       30.22R WCI  12          
SHENANDOAH *   CLOUDY    28  23  80 N12       30.23R WCI  18          
$$
 
IAZ047>049-059>061-072>074-084-061000-
   CENTRAL IOWA
  
CITY           SKY/WX    TMP DP  RH WIND       PRES   REMARKS
AMES           CLOUDY    23  17  78 N12G23    30.20R WCI  12          
ANKENY *       CLOUDY    25  21  86 N16G22    30.21S WCI  12          
BOONE *        CLOUDY    21  18  86 N17G28    30.19R WCI   7          
CHARITON *     CLOUDY    27  23  86 N9        30.17R WCI  17          
DES MOINES     CLOUDY    25  21  85 N10G24    30.19S WCI  15          
GRINNELL*      CLOUDY    25  22  89 N15       30.18R WCI  12          
KNOXVILLE *    CLOUDY    25  25 100 N16       30.17R WCI  12          
MARSHALLTOWN   CLOUDY    23  18  81 N18       30.19R WCI   9          
NEWTON *       CLOUDY    25  23  93 N17       30.17R WCI  11          
PELLA *        CLOUDY    26  22  84 N9        30.19R WCI  16          
PERRY *        CLOUDY    23  19  85 N15G21    30.22R WCI  10          
$$
 
IAZ004>006-015-016-023>025-035-036-061000-
   NORTH CENTRAL IOWA
  
CITY           SKY/WX    TMP DP  RH WIND       PRES   REMARKS
ALGONA *       CLOUDY    18  14  86 NW7       30.21R WCI   8          
CLARION *      CLOUDY    21  14  73 N10G20    30.22R WCI  10          
ESTHERVILLE    CLOUDY    14  10  84 NW13      30.22R WCI   0          
FORT DODGE *   CLOUDY    19  14  81 N10       30.23R WCI   7          
MASON CITY     PTCLDY    17  12  80 NW10      30.21R WCI   5          
FOREST CITY *  FAIR      19  14  79 NW9       30.20R WCI   9          
WEBSTER CITY * CLOUDY    21  16  79 NW17      30.20R WCI   7          
IOWA FALLS *   CLOUDY    23  19  81 NW17G29   30.19S WCI  10          
$$

IAZ007>011-017>019-026>030-037>042-050>054-066-061000-
   NORTHEAST IOWA
  
CITY           SKY/WX    TMP DP  RH WIND       PRES   REMARKS
CEDAR RAPIDS   FAIR      26  21  81 N17       30.13R WCI  13          
CHARLES CITY * FAIR      18  12  79 NW9       30.19R WCI   6          
CLINTON *      FAIR      28  24  85 NW10      30.11R WCI  19          
DECORAH *      CLOUDY    21  16  79 NW13      30.14R WCI   9          
DUBUQUE        FAIR      25  20  81 N14       30.10R WCI  13          
MONTICELLO *   FAIR      25  23  93 NW10G16   30.13R WCI  15          
WATERLOO       CLOUDY    24  17  74 NW17      30.17R WCI  11          
$$
 
IAZ064-065-067-068-078-061000-
   EAST CENTRAL IOWA
  
CITY           SKY/WX    TMP DP  RH WIND       PRES   REMARKS
DAVENPORT      FAIR      28  22  78 NW8       30.13R WCI  20          
IOWA CITY      FAIR      28  22  78 NW9       30.16R WCI  19          
MT. PLEASANT * CLOUDY    32  27  80 NW8       30.15R WCI  25          
MUSCATINE *    FAIR      30  23  74 NW10      30.16R WCI  21          
QUAD CITIES    FAIR      31  23  72 NW10      30.11R WCI  22          
$$
 
IAZ062-063-075>077-085>089-095>099-061000-
   SOUTHEAST IOWA
  
CITY           SKY/WX    TMP DP  RH WIND       PRES   REMARKS
BURLINGTON     CLOUDY    33  25  72 NW6       30.13S WCI  28          
FAIRFIELD *    CLOUDY    28  23  80 NW10      30.15R WCI  19          
FORT MADISON * CLOUDY    34  27  75 W6        30.15R WCI  29          
KEOKUK *       CLOUDY    34  28  80 CALM      30.13S                  
OSKALOOSA *    FAIR      27  22  84 N12       30.18R WCI  16          
CENTERVILLE *  FAIR      28  25  86 NW8       30.17R WCI  20          
OTTUMWA        CLOUDY    28  23  81 NW12      30.17R WCI  18          
WASHINGTON *   CLOUDY    28  27  93 NW9       30.16R WCI  20          
$$

ABBREVIATIONS USED IN REMARKS
   TC - TEMPERATURES IN CELSIUS
  WCI - WIND CHILL INDEX
   HX - HEAT INDEX
  VSB - VISIBILITY  
$$

  

460 
ASUS43 KDMX 060901
RWRIA 

WEATHER ROUNDUP FOR IOWA
NATIONAL WEATHER SERVICE DES MOINES IA
300 AM CST THU DEC 06 2018

NOTE: "FAIR" INDICATES FEW OR NO CLOUDS BELOW 12,000 FEET WITH NO
SIGNIFICANT WEATHER AND/OR OBSTRUCTIONS TO VISIBILITY.

* - THESE STATIONS ARE NOT NWS STATIONS...THUS NOT UNDER NWS
QUALITY CONTROL.  THEY ALSO DO NOT REPORT WEATHER SUCH 
AS PRECIPITATION OR FOG.  

IAZ001>003-012>014-020>022-031>034-043>046-061000-
   NORTHWEST IOWA
  
CITY           SKY/WX    TMP DP  RH WIND       PRES   REMARKS
CARROLL *      CLOUDY    23  19  86 N17       30.21S WCI   9          
CHEROKEE *     CLOUDY    20  15  83 N7        30.26R WCI  11          
DENISON *      CLOUDY    23  18  80 N14       30.25R WCI  11          
LE MARS *      CLOUDY    21  16  79 N7        30.27R WCI  13          
ORANGE CITY *  CLOUDY    21  18  86 N5        30.25R WCI  15          
SHELDON *      CLOUDY    19  16  86 N12       30.23R WCI   7          
SIOUX CITY     CLOUDY    24  18  77 NE7       30.28R WCI  16          
SPENCER        CLOUDY    20  12  71 N15       30.24R WCI   6          
STORM LAKE *   CLOUDY    18  14  86 N10       30.24R WCI   6          
$$
 
IAZ055>058-069>071-079>083-090>094-061000-
   SOUTHWEST IOWA
  
CITY           SKY/WX    TMP DP  RH WIND       PRES   REMARKS
ATLANTIC *     CLOUDY    23  21  93 N12       30.22R WCI  12          
AUDUBON *      CLOUDY    21  18  86 CALM      30.21R                  
CLARINDA *     CLOUDY    27  21  80 N10       30.24R WCI  17          
COUNCIL BLFS * CLOUDY    25  23  93 N12       30.22R WCI  14          
CRESTON *      CLOUDY    25  21  86 N15       30.19R WCI  12          
HARLAN  *        N/A    N/A N/A N/A MISG        N/A                   
LAMONI         CLOUDY    29  22  75 N10       30.17R WCI  20          
RED OAK *      CLOUDY    25  21  86 N15       30.22R WCI  12          
SHENANDOAH *   CLOUDY    28  23  80 N12       30.23R WCI  18          
$$
 
IAZ047>049-059>061-072>074-084-061000-
   CENTRAL IOWA
  
CITY           SKY/WX    TMP DP  RH WIND       PRES   REMARKS
AMES           CLOUDY    23  17  78 N12G23    30.20R WCI  12          
ANKENY *       CLOUDY    25  21  86 N16G22    30.21S WCI  12          
BOONE *        CLOUDY    21  18  86 N17G28    30.19R WCI   7          
CHARITON *     CLOUDY    27  23  86 N9        30.17R WCI  17          
DES MOINES     CLOUDY    25  21  85 N10G24    30.19S WCI  15          
GRINNELL*      CLOUDY    25  22  89 N15       30.18R WCI  12          
KNOXVILLE *    CLOUDY    25  25 100 N16       30.17R WCI  12          
MARSHALLTOWN   CLOUDY    23  19  85 N18       30.18R WCI   9          
NEWTON *       CLOUDY    25  23  93 N17       30.17R WCI  11          
PELLA *        CLOUDY    26  22  84 N9        30.19R WCI  16          
PERRY *        CLOUDY    23  19  85 N15G21    30.22R WCI  10          
$$
 
IAZ004>006-015-016-023>025-035-036-061000-
   NORTH CENTRAL IOWA
  
CITY           SKY/WX    TMP DP  RH WIND       PRES   REMARKS
ALGONA *       CLOUDY    18  14  86 NW7       30.21R WCI   8          
CLARION *      CLOUDY    21  14  73 N10G20    30.22R WCI  10          
ESTHERVILLE    CLOUDY    14  10  84 NW13      30.22R WCI   0          
FORT DODGE *   CLOUDY    19  14  81 N10       30.23R WCI   7          
MASON CITY     PTCLDY    17  12  80 NW10      30.21R WCI   5          
FOREST CITY *  FAIR      19  14  79 NW9       30.20R WCI   9          
IOWA FALLS *   CLOUDY    23  19  81 NW17G29   30.19S WCI  10          
$$

IAZ007>011-017>019-026>030-037>042-050>054-066-061000-
   NORTHEAST IOWA
  
CITY           SKY/WX    TMP DP  RH WIND       PRES   REMARKS
CEDAR RAPIDS   FAIR      26  21  81 N17       30.13R WCI  13          
CHARLES CITY * FAIR      18  12  79 NW9       30.19R WCI   6          
CLINTON *      FAIR      28  24  85 NW10      30.11R WCI  19          
DECORAH *      CLOUDY    21  16  79 NW13      30.14R WCI   9          
DUBUQUE        FAIR      25  20  81 N14       30.10R WCI  13          
MONTICELLO *   FAIR      25  23  93 NW10G16   30.13R WCI  15          
WATERLOO       CLOUDY    24  17  74 NW17      30.17R WCI  11          
$$
 
IAZ064-065-067-068-078-061000-
   EAST CENTRAL IOWA
  
CITY           SKY/WX    TMP DP  RH WIND       PRES   REMARKS
DAVENPORT      FAIR      28  22  78 NW8       30.13R WCI  20          
IOWA CITY      FAIR      28  22  78 NW9       30.16R WCI  19          
MT. PLEASANT * CLOUDY    32  27  80 NW8       30.15R WCI  25          
MUSCATINE *    FAIR      30  23  74 NW10      30.16R WCI  21          
QUAD CITIES    FAIR      31  23  72 NW10      30.11R WCI  22          
$$
 
IAZ062-063-075>077-085>089-095>099-061000-
   SOUTHEAST IOWA
  
CITY           SKY/WX    TMP DP  RH WIND       PRES   REMARKS
BURLINGTON     CLOUDY    33  25  72 NW6       30.13S WCI  28          
FAIRFIELD *    CLOUDY    28  23  80 NW10      30.15R WCI  19          
FORT MADISON * CLOUDY    34  27  75 W6        30.15R WCI  29          
KEOKUK *       CLOUDY    34  28  80 CALM      30.13S                  
OSKALOOSA *    FAIR      27  22  84 N12       30.18R WCI  16          
OTTUMWA        CLOUDY    28  23  81 NW12      30.17R WCI  18          
WASHINGTON *   CLOUDY    28  27  93 NW9       30.16R WCI  20          
$$

ABBREVIATIONS USED IN REMARKS
   TC - TEMPERATURES IN CELSIUS
  WCI - WIND CHILL INDEX
   HX - HEAT INDEX
  VSB - VISIBILITY  
$$